Location: Boćki
(52.6512°N, 23.0459°E)
Time: 15:10:32
(UTC+01:00)

ISS - Pass Details

Date: 29 January 2019
Orbit: 403 x 411 km, 51.6° (Epoch: 23 February)

Event Time Altitude Azimuth Distance (km) Brightness Sun altitude
Rises 18:15:20 0° 259° (W) 2,335 1.7 -19.3°
Reaches altitude 10° 18:17:25 10° 258° (WSW) 1,476 0.2 -19.6°
Enters shadow 18:20:39 72° 187° (S) 437 -3.8 -20.1°
